Change the Weather History Date:

Wednesday, January 9, 2013

  Actual Average (KSEP) Record (KSEP)
Temperature  
Mean Temperature 50 °F -  
Max Temperature 55 °F 52 °F 81 °F (1957)
Min Temperature 46 °F 29 °F 13 °F (1976)
Degree Days  
Heating Degree Days 14    
Moisture  
Dew Point 50 °F    
Average Humidity 98    
Maximum Humidity 100    
Minimum Humidity 93    
Precipitation  
Precipitation 1.46 in - - ()
Sea Level Pressure  
Sea Level Pressure 30.01 in    
Wind  
Wind Speed 8 mph (NNE)    
Max Wind Speed 16 mph    
Max Gust Speed 21 mph    
Visibility 7 miles    
Events Rain    
Averages and records for this station are not official NWS values.
T = Trace of Precipitation, MM = Missing Value Source: NWS Daily Summary

Daily Weather History Graph

Daily Weather History Graph

Search for Another Location

Airport or City:

Trip Planner

Search our weather history database for the weather conditions in past years. The results will help you decide how hot, cold, wet, or windy it might be!

Date:

Astronomy

Jan. 09, 2013 Rise Set
Actual Time 7:35 AM CST 5:47 PM CST
Civil Twilight 7:08 AM CST 6:14 PM CST
Nautical Twilight 6:38 AM CST 6:44 PM CST
Astronomical Twilight 6:09 AM CST 7:14 PM CST
Moon 5:16 AM CST (1/9) 3:51 PM CST (1/9)
Length of Visible Light 11h 05m
Length of Day
10h 12m
Waning Crescent, 6% of the Moon is Illuminated
Jan 9
Waning Crescent
Jan 11
New
Jan 18
First Quarter
Jan 26
Full
Feb 3
Last Quarter

Hourly Weather History & Observations

Time (CST) Temp. Windchill Dew Point Humidity Pressure Visibility Wind Dir Wind Speed Gust Speed Precip Events Conditions
12:15 AM 46.4 °F 41.5 °F 44.6 °F 93% 30.05 in 7.0 mi North 10.4 mph - 0.04 in Rain Rain
12:35 AM 46.4 °F 41.5 °F 44.6 °F 93% 30.05 in 10.0 mi NNE 10.4 mph - 0.06 in Rain Light Rain
12:55 AM 46.4 °F 41.9 °F 44.6 °F 93% 30.04 in 10.0 mi North 9.2 mph - 0.08 in Rain Light Rain
1:15 AM 46.4 °F 42.4 °F 44.6 °F 93% 30.06 in 10.0 mi North 8.1 mph - 0.03 in Rain Rain
1:35 AM 46.4 °F 42.9 °F 44.6 °F 93% 30.06 in 10.0 mi NNW 6.9 mph - 0.07 in Rain Rain
1:55 AM 46.4 °F 43.5 °F 44.6 °F 93% 30.06 in 7.0 mi NNW 5.8 mph - 0.10 in Rain Rain
2:15 AM 46.4 °F 42.9 °F 44.6 °F 93% 30.06 in 10.0 mi North 6.9 mph - 0.03 in Rain Rain
2:35 AM 46.4 °F 42.9 °F 46.4 °F 100% 30.06 in 7.0 mi NNE 6.9 mph - 0.07 in Rain Rain
2:55 AM 46.4 °F 42.4 °F 46.4 °F 100% 30.05 in 4.0 mi NE 8.1 mph - 0.12 in Rain Rain
3:15 AM 46.4 °F 45.2 °F 46.4 °F 100% 30.06 in 2.5 mi ENE 3.5 mph - 0.04 in Rain Rain
3:35 AM 46.4 °F 45.2 °F 46.4 °F 100% 30.06 in 3.0 mi NW 3.5 mph - 0.11 in Rain Rain
3:55 AM 48.2 °F - 46.4 °F 93% 30.06 in 5.0 mi NNW 3.5 mph - 0.14 in Rain Rain
4:15 AM 48.2 °F - 48.2 °F 100% 30.06 in 10.0 mi North 5.8 mph - 0.03 in Rain Rain
4:35 AM 50.0 °F - 48.2 °F 94% 30.06 in 7.0 mi North 5.8 mph - 0.06 in Rain Rain
4:55 AM 50.0 °F - 50.0 °F 100% 30.04 in 10.0 mi North 8.1 mph - 0.10 in Rain Rain
5:15 AM 50.0 °F - 50.0 °F 100% 30.04 in 10.0 mi North 6.9 mph - 0.02 in Rain Rain
5:35 AM 51.8 °F - 51.8 °F 100% 30.04 in 10.0 mi NNE 8.1 mph - 0.04 in Rain Light Rain
5:55 AM 51.8 °F - 51.8 °F 100% 30.04 in 10.0 mi NNE 11.5 mph - 0.06 in Rain Light Rain
6:15 AM 51.8 °F - 51.8 °F 100% 30.04 in 10.0 mi North 15.0 mph - 0.01 in Rain Light Rain
6:35 AM 48.2 °F - 48.2 °F 100% 30.04 in 10.0 mi North 13.8 mph - 0.02 in Rain Light Rain
6:55 AM 48.2 °F - 46.4 °F 93% 30.06 in 10.0 mi North 13.8 mph - 0.03 in Rain Light Rain
7:15 AM 46.4 °F 39.8 °F 46.4 °F 100% 30.05 in 10.0 mi North 16.1 mph - 0.02 in Rain Light Rain
7:35 AM 46.4 °F 40.7 °F 46.4 °F 100% 30.07 in 10.0 mi North 12.7 mph - 0.03 in Rain Rain
7:55 AM 46.4 °F 40.4 °F 46.4 °F 100% 30.06 in 10.0 mi North 13.8 mph 19.6 mph 0.03 in Rain Rain
8:15 AM 46.4 °F 41.1 °F 46.4 °F 100% 30.07 in 10.0 mi North 11.5 mph - N/A Rain Light Rain
8:35 AM 46.4 °F 42.4 °F 46.4 °F 100% 30.09 in 10.0 mi North 8.1 mph - N/A   Drizzle
8:55 AM 48.2 °F - 46.4 °F 93% 30.10 in 10.0 mi NNE 8.1 mph - 0.01 in Rain Rain
9:15 AM 48.2 °F - 48.2 °F 100% 30.11 in 7.0 mi NNE 6.9 mph - 0.01 in Rain Light Rain
9:35 AM 50.0 °F - 48.2 °F 94% 30.10 in 5.0 mi North 8.1 mph - 0.03 in Rain Heavy Rain
10:15 AM 50.0 °F - 48.2 °F 94% 30.09 in 2.0 mi NNW 10.4 mph - 0.01 in Rain Heavy Rain
10:35 AM 50.0 °F - 48.2 °F 94% 30.08 in 1.5 mi NNW 12.7 mph 16.1 mph 0.04 in Rain Heavy Rain
10:55 AM 50.0 °F - 48.2 °F 94% 30.06 in 2.0 mi North 15.0 mph 20.7 mph 0.10 in Rain Rain
11:15 AM 50.0 °F - 50.0 °F 100% 30.05 in 4.0 mi North 13.8 mph 18.4 mph 0.04 in Rain Rain
11:35 AM 50.0 °F - 50.0 °F 100% 30.04 in 4.0 mi North 15.0 mph - 0.08 in Rain Rain
11:55 AM 50.0 °F - 50.0 °F 100% 30.02 in 4.0 mi North 12.7 mph - 0.10 in Rain Heavy Rain
12:15 PM 50.0 °F - 50.0 °F 100% 30.01 in 5.0 mi North 15.0 mph 18.4 mph 0.01 in Rain Light Rain
12:35 PM 50.0 °F - 50.0 °F 100% 30.00 in 5.0 mi North 10.4 mph - 0.02 in   Drizzle
12:55 PM 50.0 °F - 50.0 °F 100% 29.99 in 3.0 mi North 10.4 mph - 0.10 in Rain Rain
1:15 PM 50.0 °F - 50.0 °F 100% 29.97 in 5.0 mi North 10.4 mph - 0.02 in Rain Rain
1:35 PM 50.0 °F - 50.0 °F 100% 29.97 in 4.0 mi North 11.5 mph - 0.04 in Rain Heavy Rain
1:55 PM 50.0 °F - 50.0 °F 100% 29.96 in 4.0 mi NNE 8.1 mph - 0.08 in Rain Light Rain
2:15 PM 51.8 °F - 50.0 °F 94% 29.96 in 5.0 mi North 5.8 mph - 0.02 in Rain Light Rain
2:35 PM 51.8 °F - 50.0 °F 94% 29.97 in 2.0 mi Calm Calm - 0.05 in Rain Heavy Rain
2:55 PM 51.8 °F - 51.8 °F 100% 29.95 in 2.5 mi NW 3.5 mph - 0.08 in   Heavy Drizzle
3:15 PM 51.8 °F - 51.8 °F 100% 29.92 in 3.0 mi North 10.4 mph - 0.01 in Rain Light Rain
3:35 PM 51.8 °F - 51.8 °F 100% 29.91 in 10.0 mi North 10.4 mph - 0.02 in   Light Drizzle
3:55 PM 51.8 °F - 51.8 °F 100% 29.92 in 7.0 mi North 6.9 mph - 0.02 in Rain Light Rain
4:15 PM 53.6 °F - 51.8 °F 94% 29.93 in 10.0 mi Calm Calm - 0.01 in Rain Light Rain
4:35 PM 53.6 °F - 53.6 °F 100% 29.94 in 4.0 mi East 5.8 mph - 0.05 in Rain Rain
4:55 PM 53.6 °F - 53.6 °F 100% 29.93 in 2.0 mi East 6.9 mph - 0.11 in Rain Heavy Rain
5:15 PM 55.4 °F - 53.6 °F 94% 29.94 in 2.0 mi East 9.2 mph - 0.02 in Rain Heavy Rain
5:35 PM 55.4 °F - 53.6 °F 94% 29.93 in 2.5 mi ESE 6.9 mph - 0.03 in   Drizzle
5:55 PM 55.4 °F - 55.4 °F 100% 29.95 in 2.5 mi East 8.1 mph - 0.04 in Rain Rain
6:15 PM 55.4 °F - 55.4 °F 100% 29.95 in 3.0 mi East 10.4 mph - 0.01 in Rain Rain
6:35 PM 55.4 °F - 55.4 °F 100% 29.96 in 4.0 mi East 8.1 mph - 0.04 in Rain Light Rain
6:55 PM 55.4 °F - 55.4 °F 100% 29.96 in 7.0 mi East 9.2 mph - 0.08 in Rain Rain
7:35 PM 55.4 °F - 55.4 °F 100% 29.97 in 3.0 mi ESE 6.9 mph - 0.03 in Rain Rain
7:55 PM 55.4 °F - 55.4 °F 100% 29.98 in 7.0 mi SSE 6.9 mph - 0.04 in   Overcast
8:15 PM 55.4 °F - 53.6 °F 94% 29.98 in 10.0 mi South 9.2 mph - 0.01 in   Overcast
8:35 PM 53.6 °F - 51.8 °F 94% 29.99 in 10.0 mi South 6.9 mph - 0.01 in   Overcast
8:55 PM 53.6 °F - 51.8 °F 94% 29.97 in 10.0 mi SW 4.6 mph - 0.01 in Rain Rain
9:15 PM 51.8 °F - 51.8 °F 100% 29.97 in 10.0 mi Calm Calm - N/A   Overcast
9:35 PM 51.8 °F - 51.8 °F 100% 29.97 in 10.0 mi Calm Calm - N/A   Overcast
9:55 PM 51.8 °F - 51.8 °F 100% 29.97 in 7.0 mi Calm Calm - N/A Rain Light Rain
10:15 PM 51.8 °F - 51.8 °F 100% 29.99 in 10.0 mi Calm Calm - N/A   Overcast
10:35 PM 51.8 °F - 51.8 °F 100% 29.99 in 10.0 mi Calm Calm - N/A   Light Drizzle
10:55 PM 51.8 °F - 51.8 °F 100% 29.99 in 7.0 mi Calm Calm - N/A   Overcast
11:15 PM 51.8 °F - 51.8 °F 100% 29.99 in 5.0 mi Calm Calm - N/A   Light Drizzle
11:35 PM 51.8 °F - 51.8 °F 100% 30.00 in 4.0 mi Calm Calm - N/A   Overcast
11:55 PM 51.8 °F - 51.8 °F 100% 29.99 in 10.0 mi SSW 3.5 mph - N/A   Overcast